Lid_Strength_Index
15 14 14 15 15 15 16 16 18 16 17 15 12 11 11 10 8 8 8 6 7 7 7 5 4 3 3 3 2 2 2 3 2 2 2 2 2 2 3 3 3 2 2 2
16 13 13 15 14 14 15 15 16 16 17 13 12 11 11 10 8 8 7 6 6 6 7 7 6 4 3 3 3 2 2 2 2 2 2 3 3 3 3 3 3 3 3 3
17 14 14 18 14 13 13 13 15 18 15 11 12 12 11 9 7 8 8 6 5 5 5 6 7 6 5 4 3 3 3 2 2 2 2 2 3 3 3 3 4 4 4 5
19 16 21 15 11 11 12 12 11 13 13 12 12 11 10 9 7 7 7 6 6 6 5 6 6 6 5 5 4 4 4 3 3 3 4 4 4 4 5 5 5 6 6 6
22 19 16 14 12 12 13 13 11 12 11 11 11 10 10 8 6 7 6 5 6 5 5 5 5 5 5 5 5 5 5 4 3 4 4 4 5 6 7 7 7 7 7 7
19 25 24 15 11 9 10 16 9 9 10 10 10 15 13 9 6 6 6 5 5 5 5 5 4 4 5 6 6 7 6 6 5 4 4 6 7 7 8 8 8 8 8 7
20 23 18 12 9 8 16 15 9 8 9 9 11 10 9 7 6 5 5 5 4 4 5 4 4 4 5 6 6 6 6 6 7 7 7 7 8 7 8 8 9 9 8 8
18 21 19 10 10 12 11 10 8 8 7 7 7 6 7 7 6 6 6 6 5 5 5 4 3 4 5 6 5 6 6 7 8 7 7 7 8 8 8 9 9 9 9 9
13 15 11 9 8 7 8 9 9 8 7 6 6 6 6 7 7 7 6 7 6 5 5 4 3 4 5 5 5 5 6 8 7 7 7 8 8 9 9 8 9 9 10 10
13 10 10 8 7 7 7 8 7 6 6 6 7 6 6 6 6 7 7 7 6 6 5 5 4 3 4 4 5 6 7 8 8 8 8 8 9 9 10 10 10 10 10 11
12 10 9 8 8 7 6 6 6 5 5 6 6 6 6 6 5 5 5 4 5 5 5 5 4 4 5 4 5 6 8 8 9 9 9 9 10 10 10 10 10 10 11 11
13 9 9 9 8 7 7 7 6 6 6 5 6 6 5 5 5 5 5 4 3 3 4 4 4 5 5 5 6 7 8 9 9 9 9 10 11 11 12 12 11 12 12 11
10 8 8 7 7 7 7 7 6 6 5 6 5 5 5 6 5 4 3 4 4 4 3 3 4 5 5 5 6 7 8 9 10 10 10 10 11 11 12 11 12 11 12 11
8 9 10 8 8 6 5 5 4 4 5 5 5 5 5 5 5 5 4 3 3 3 3 3 4 4 4 4 6 7 8 9 9 10 10 10 11 11 11 12 12 11 11 11
8 7 7 8 7 6 6 5 5 5 5 6 5 5 5 5 5 5 4 3 3 3 3 3 4 4 4 5 6 7 8 8 8 9 10 10 11 11 11 11 11 10 10 10
8 7 7 8 7 6 5 6 6 5 5 5 5 5 5 4 5 4 3 3 4 4 3 4 4 5 4 5 6 7 7 9 9 9 10 10 10 11 11 11 11 10 11 10
8 9 8 8 7 6 6 5 5 5 5 5 5 5 5 5 5 4 3 4 4 4 4 4 4 3 4 5 5 6 7 8 11 8 9 9 10 10 10 10 10 10 11 10
7 7 7 7 8 7 6 5 4 4 4 4 4 4 5 5 5 4 3 4 4 4 4 4 3 3 3 4 5 5 6 7 8 8 9 9 9 9 9 10 10 11 10 10
7 8 8 7 7 7 7 6 5 4 4 4 4 5 5 5 4 3 3 5 4 5 4 3 4 3 3 3 4 6 6 7 8 8 8 9 9 10 10 11 11 11 11 11
8 7 7 7 7 8 8 7 6 5 4 4 5 4 4 4 4 4 3 4 4 4 3 3 3 3 3 5 7 5 6 7 7 8 9 9 10 11 11 12 11 11 11 11
9 8 8 8 8 8 8 8 8 8 7 4 5 5 5 4 4 4 4 5 4 3 3 4 4 4 5 6 6 7 7 8 8 9 10 11 11 11 12 12 12 11 11 11
8 9 9 9 9 9 8 8 8 8 9 7 6 5 5 5 5 6 5 6 6 9 6 5 6 8 7 9 7 7 8 8 10 10 11 12 12 12 12 11 12 12 12 11
7 8 9 10 9 9 8 8 8 8 9 9 10 10 10 10 8 7 8 8 6 7 5 6 10 12 12 7 7 8 9 10 11 12 12 11 11 11 12 12 12 12 12 12
8 8 9 8 8 9 10 9 8 8 8 8 8 10 9 8 9 10 9 10 10 9 7 8 10 11 10 7 8 9 10 10 10 10 11 13 12 12 12 12 12 12 12 12
9 9 9 9 9 10 9 9 8 8 8 7 7 7 7 7 9 11 9 8 11 8 8 11 11 10 7 7 7 7 8 9 10 11 11 12 12 12 12 12 12 12 12 12
7 9 9 9 10 10 10 9 9 8 8 8 8 8 7 7 8 8 9 9 8 9 7 6 6 6 7 7 8 9 9 10 10 11 11 11 11 11 11 11 11 11 11 11
9 9 9 10 10 10 9 10 9 8 8 8 9 8 7 7 7 7 9 8 7 7 8 8 7 8 8 8 9 9 9 10 11 11 11 11 11 11 11 11 11 11 11 11